Location: Observatory Park - Geauga Park District
(41.5832°N, 81.0716°W)
Time: 16:34:34
(UTC-04:00)

Tiangong - Pass Details

Date: 03 October 2021
Orbit: 382 x 385 km, 41.5° (Epoch: 18 October)

Event Time Altitude Azimuth Distance (km) Brightness Sun altitude
Exits shadow 05:36:25 64° 91° (E) 425 1.4 -20.7°
Drops below altitude 10° 05:39:08 10° 92° (E) 1,393 5.0 -20.2°
Sets 05:41:12 0° 92° (E) 2,245 6.4 -19.8°
